LKTB Weather Reports


Display with metric or nautical units.
time (UTC)temp
F
wind
direction
speed
MPH
gust
MPH
rain 1hr
in
rain 24hr
in
rain mn
in
humidity
%
barometer
mb
20260905175431 72 270 10.0 0.0 0.00 0.00 0.00 40 1019.0
20260905175231 72 270 10.0 0.0 0.00 0.00 0.00 40 1019.0
20260905174731 72 270 10.0 0.0 0.00 0.00 0.00 40 1019.0
20260905174131 72 270 10.0 0.0 0.00 0.00 0.00 40 1019.0
20260905173445 72 270 10.0 0.0 0.00 0.00 0.00 40 1019.0
20260905172731 73 290 14.0 0.0 0.00 0.00 0.00 38 1019.0
20260905172227 73 280 14.0 0.0 0.00 0.00 0.00 38
20260905172138 73 290 14.0 0.0 0.00 0.00 0.00 38 1019.0
20260905171553 73 290 14.0 0.0 0.00 0.00 0.00 38 1019.0
20260905170545 73 290 14.0 0.0 0.00 0.00 0.00 38 1019.0
20260905170228 73 290 14.0 0.0 0.00 0.00 0.00 38 1019.0
20260905163831 73 270 18.0 0.0 0.00 0.00 0.00 35 1019.0
20260905163224 73 270 18.0 0.0 0.00 0.00 0.00 35 1019.0
20260905162930 75 290 20.0 0.0 0.00 0.00 0.00 33 1019.0
20260905162531 75 280 20.0 0.0 0.00 0.00 0.00 33
20260905162238 75 290 20.0 0.0 0.00 0.00 0.00 33 1019.0
20260905161632 75 290 20.0 0.0 0.00 0.00 0.00 33 1019.0
20260905161132 75 290 20.0 0.0 0.00 0.00 0.00 33 1019.0
20260905160831 75 290 20.0 0.0 0.00 0.00 0.00 33 1019.0
20260905160333 75 290 20.0 0.0 0.00 0.00 0.00 33 1019.0
20260905154731 75 290 20.0 0.0 0.00 0.00 0.00 33 1018.0
20260905154552 75 290 20.0 0.0 0.00 0.00 0.00 33 1018.0
20260905154231 75 290 20.0 0.0 0.00 0.00 0.00 33 1018.0
20260905152000 75 300 20.0 0.0 0.00 0.00 0.00 31
20260905151842 75 290 22.0 0.0 0.00 0.00 0.00 31 1018.0
20260905151132 75 290 22.0 0.0 0.00 0.00 0.00 31 1018.0
20260905150630 75 290 22.0 0.0 0.00 0.00 0.00 31 1018.0
20260905145931 77 290 21.0 0.0 0.00 0.00 0.00 31 1018.0
20260905145631 77 290 21.0 0.0 0.00 0.00 0.00 31 1018.0
20260905145130 77 290 21.0 0.0 0.00 0.00 0.00 31 1018.0
20260905144231 77 290 21.0 0.0 0.00 0.00 0.00 31 1018.0
20260905143732 77 290 21.0 0.0 0.00 0.00 0.00 31 1018.0
20260905142138 75 290 21.0 0.0 0.00 0.00 0.00 31 1018.0
20260905141958 75 290 20.0 0.0 0.00 0.00 0.00 31
20260905140444 75 290 21.0 0.0 0.00 0.00 0.00 31 1018.0
20260905140134 75 280 18.0 0.0 0.00 0.00 0.00 33 1018.0
20260905135053 75 280 18.0 0.0 0.00 0.00 0.00 33 1018.0
20260905134630 75 280 18.0 0.0 0.00 0.00 0.00 33 1018.0
20260905134231 75 280 18.0 0.0 0.00 0.00 0.00 33 1018.0
20260905133832 75 280 18.0 0.0 0.00 0.00 0.00 33 1018.0
20260905133444 75 280 18.0 0.0 0.00 0.00 0.00 33 1018.0
20260905133234 75 280 18.0 0.0 0.00 0.00 0.00 33 1018.0
20260905133131 75 290 17.0 29.0 0.00 0.00 0.00 36 1018.0
20260905132337 75 280 20.0 0.0 0.00 0.00 0.00 33
20260905132241 75 290 17.0 29.0 0.00 0.00 0.00 36 1018.0
20260905131713 75 290 17.0 29.0 0.00 0.00 0.00 36 1018.0
20260905131630 75 280 21.0 0.0 0.00 0.00 0.00 33 1018.0
20260905131131 75 280 21.0 0.0 0.00 0.00 0.00 33 1018.0
20260905130731 75 280 21.0 0.0 0.00 0.00 0.00 33 1018.0
20260905130234 75 280 21.0 0.0 0.00 0.00 0.00 33 1018.0
20260905125631 75 280 20.0 0.0 0.00 0.00 0.00 36 1018.0
20260905125431 75 280 20.0 0.0 0.00 0.00 0.00 36 1018.0
20260905125231 75 280 20.0 0.0 0.00 0.00 0.00 36 1018.0
20260905124930 75 280 20.0 0.0 0.00 0.00 0.00 36 1018.0
20260905124552 75 280 20.0 0.0 0.00 0.00 0.00 36 1018.0
20260905124052 75 280 20.0 0.0 0.00 0.00 0.00 36 1018.0
20260905123631 75 280 20.0 0.0 0.00 0.00 0.00 36 1018.0
20260905123331 75 280 20.0 0.0 0.00 0.00 0.00 36 1018.0
20260905123131 75 270 18.0 0.0 0.00 0.00 0.00 38 1019.0
20260905122235 75 280 18.0 0.0 0.00 0.00 0.00 36
20260905122138 75 270 18.0 0.0 0.00 0.00 0.00 38 1019.0
20260905121742 75 270 18.0 0.0 0.00 0.00 0.00 38 1019.0
20260905121131 75 270 18.0 0.0 0.00 0.00 0.00 38 1019.0
20260905120546 75 270 18.0 0.0 0.00 0.00 0.00 38 1019.0
20260905115837 73 280 17.0 0.0 0.00 0.00 0.00 38 1019.0
20260905114052 73 280 17.0 0.0 0.00 0.00 0.00 38 1019.0
20260905113223 73 280 17.0 0.0 0.00 0.00 0.00 38 1019.0
20260905112731 73 260 17.0 0.0 0.00 0.00 0.00 43 1019.0
20260905112237 73 260 17.0 0.0 0.00 0.00 0.00 43 1019.0
20260905112131 73 260 16.0 0.0 0.00 0.00 0.00 43
20260905111838 73 260 17.0 0.0 0.00 0.00 0.00 43 1019.0
20260905110224 73 260 17.0 0.0 0.00 0.00 0.00 43 1019.0
20260905105231 72 280 13.0 0.0 0.00 0.00 0.00 53 1019.0
20260905105053 72 280 13.0 0.0 0.00 0.00 0.00 53 1019.0
20260905104631 72 280 13.0 0.0 0.00 0.00 0.00 53 1019.0
20260905104331 72 280 13.0 0.0 0.00 0.00 0.00 53 1019.0
20260905103224 72 280 13.0 0.0 0.00 0.00 0.00 53 1019.0
20260905102831 72 270 12.0 0.0 0.00 0.00 0.00 49 1019.0
20260905102545 68 270 12.0 0.0 0.00 0.00 0.00 56
20260905102336 72 270 12.0 0.0 0.00 0.00 0.00 49 1019.0
20260905101931 68 270 12.0 0.0 0.00 0.00 0.00 60 1019.0
20260905101431 68 270 12.0 0.0 0.00 0.00 0.00 60 1019.0
20260905100831 68 270 12.0 0.0 0.00 0.00 0.00 60 1019.0
20260905100337 68 270 12.0 0.0 0.00 0.00 0.00 60 1019.0
20260905095231 68 250 12.0 0.0 0.00 0.00 0.00 60 1019.0
20260905094831 68 250 12.0 0.0 0.00 0.00 0.00 60 1019.0
20260905094230 68 250 12.0 0.0 0.00 0.00 0.00 60 1019.0
20260905093732 68 250 12.0 0.0 0.00 0.00 0.00 60 1019.0
20260905092431 66 260 10.0 0.0 0.00 0.00 0.00 68 1020.0
20260905092123 66 260 12.0 0.0 0.00 0.00 0.00 68
20260905091944 66 260 10.0 0.0 0.00 0.00 0.00 68 1020.0
20260905090832 66 260 10.0 0.0 0.00 0.00 0.00 68 1020.0
20260905090229 66 260 10.0 0.0 0.00 0.00 0.00 68 1020.0
20260905084230 63 250 8.0 0.0 0.00 0.00 0.00 77 1020.0
20260905083224 63 250 8.0 0.0 0.00 0.00 0.00 77 1020.0
20260905082144 61 270 7.0 0.0 0.00 0.00 0.00 82
20260905080227 61 270 5.0 0.0 0.00 0.00 0.00 77 1019.0
20260905073223 61 310 8.0 0.0 0.00 0.00 0.00 77 1019.0
20260905072444 61 260 7.0 0.0 0.00 0.00 0.00 77
20260905070225 61 230 8.0 0.0 0.00 0.00 0.00 77 1018.0
20260905063224 61 270 13.0 0.0 0.00 0.00 0.00 77 1019.0
20260905062145 63 270 9.0 0.0 0.00 0.00 0.00 77
20260905060227 63 270 8.0 0.0 0.00 0.00 0.00 77 1018.0
20260905055011 63 270 9.0 0.0 0.00 0.00 0.00 82 1018.0
20260905053216 63 250 8.0 0.0 0.00 0.00 0.00 82 1018.0
20260905052141 63 290 5.0 0.0 0.00 0.00 0.00 82
20260905050227 63 280 5.0 0.0 0.00 0.00 0.00 82 1017.0
20260905043217 63 300 7.0 0.0 0.00 0.00 0.00 82 1017.0
20260905042545 66 310 7.0 0.0 0.00 0.00 0.00 59
20260905042203 64 310 6.0 0.0 0.00 0.00 0.00 77 1017.0
20260905041103 64 290 9.0 0.0 0.00 0.00 0.00 72 1016.0
20260905040703 66 300 8.0 0.0 0.00 0.00 0.00 63 1017.0
20260905040228 66 320 8.0 0.0 0.00 0.00 0.00 63 1016.0
20260905033217 68 330 13.0 0.0 0.00 0.00 0.00 52 1016.0
20260905032143 68 330 9.0 0.0 0.00 0.00 0.00 56
20260905030226 68 330 8.0 0.0 0.00 0.00 0.00 56 1015.0
20260905023217 70 330 12.0 0.0 0.00 0.00 0.00 49 1015.0
20260905022143 70 340 16.0 0.0 0.00 0.00 0.00 52
20260905020226 70 330 15.0 0.0 0.00 0.00 0.00 56 1014.0
20260905013216 72 330 21.0 32.0 0.00 0.00 0.00 53 1014.0
20260905012459 73 10 5.0 0.0 0.00 0.00 0.00 49
20260905011403 72 340 16.0 0.0 0.00 0.00 0.00 56 1014.0
20260905010226 73 0 2.0 0.0 0.00 0.00 0.00 49 1013.0
20260905003217 72 0 0.0 0.0 0.00 0.00 0.00 53 1012.0
20260905002157 72 200 5.0 0.0 0.00 0.00 0.00 53
20260905000226 72 210 5.0 0.0 0.00 0.00 0.00 53 1012.0
20260904233217 73 250 2.0 0.0 0.00 0.00 0.00 49 1012.0
20260904232229 73 220 2.0 0.0 0.00 0.00 0.00 49
20260904230227 73 0 0.0 0.0 0.00 0.00 0.00 49 1011.0
20260904223217 73 200 3.0 0.0 0.00 0.00 0.00 49 1011.0
20260904222558 75 240 2.0 0.0 0.00 0.00 0.00 47
20260904220226 75 0 0.0 0.0 0.00 0.00 0.00 47 1011.0
20260904213217 72 0 2.0 0.0 0.00 0.00 0.00 53 1011.0
20260904212142 72 150 2.0 0.0 0.00 0.00 0.00 53
20260904210226 72 0 2.0 0.0 0.00 0.00 0.00 53 1011.0
20260904203216 75 0 0.0 0.0 0.00 0.00 0.00 47 1012.0
20260904202142 73 160 2.0 0.0 0.00 0.00 0.00 46
20260904200229 75 0 1.0 0.0 0.00 0.00 0.00 47 1012.0
20260904193217 77 0 2.0 0.0 0.00 0.00 0.00 44 1012.0
20260904192430 77 240 7.0 0.0 0.00 0.00 0.00 44
20260904190228 77 250 7.0 0.0 0.00 0.00 0.00 44 1012.0
20260904183223 79 210 6.0 0.0 0.00 0.00 0.00 41 1012.0
20260904182158 81 230 7.0 0.0 0.00 0.00 0.00 39
20260904180227 79 220 6.0 0.0 0.00 0.00 0.00 41 1011.0